Location: Carella
(45.8167°N, 9.2667°E)
Time: 13:08:04
(UTC+00:00)

USA 234 - Visible Passes

Search period start: 06 August 2020 00:00
Search period end: 16 August 2020 00:00
Orbit: 1101 x 1106 km, 123.0° (Epoch: 02 August)

Date Brightness Start Highest point End Pass type
(mag) Time Alt. Az. Time Alt. Az. Time Alt. Az.
06 Aug 3.4 20:00:26 15° ESE 20:06:04 75° NNE 20:12:36 10° NW visible
06 Aug 4.0 21:47:46 32° SSW 21:49:24 37° SW 21:55:23 10° WNW visible
07 Aug 3.9 19:17:15 10° E 19:23:31 51° NNE 19:29:47 10° NW visible
07 Aug 3.3 21:03:16 33° SSE 21:06:25 67° SW 21:12:56 10° NW visible
07 Aug 4.9 22:50:37 18° WSW 22:50:37 18° WSW 22:54:31 10° W visible
08 Aug 3.3 20:18:46 19° ESE 20:23:39 75° NNE 20:30:11 10° NW visible
08 Aug 3.9 22:06:06 35° SSW 22:06:59 37° SW 22:12:58 10° WNW visible
09 Aug 3.9 19:34:50 10° E 19:41:06 51° NNE 19:47:22 10° NW visible
09 Aug 3.3 21:21:35 41° SSE 21:23:59 67° SW 21:30:31 10° NW visible
09 Aug 4.9 23:08:56 17° WSW 23:08:56 17° WSW 23:12:05 10° W visible
10 Aug 3.3 20:37:03 24° ESE 20:41:13 76° NE 20:47:46 10° NW visible
10 Aug 3.9 22:24:24 36° SW 22:24:34 36° SW 22:30:32 10° WNW visible
11 Aug 3.9 19:52:31 11° E 19:58:40 51° NNE 20:04:57 10° NW visible
11 Aug 3.3 21:39:52 49° SSE 21:41:34 67° SW 21:48:05 10° NW visible
11 Aug 5.0 23:27:12 16° WSW 23:27:12 16° WSW 23:29:38 10° W visible
12 Aug 4.3 19:10:22 10° E 19:16:18 39° NNE 19:22:14 10° NW visible
12 Aug 3.3 20:55:19 30° ESE 20:58:48 76° NNE 21:05:21 10° NW visible
12 Aug 4.0 22:42:40 36° WSW 22:42:40 36° WSW 22:48:06 10° WNW visible
13 Aug 3.8 20:10:46 14° E 20:16:15 51° NNE 20:22:31 10° NW visible
13 Aug 3.2 21:58:07 58° S 21:59:08 66° SW 22:05:40 10° NW visible
13 Aug 5.1 23:45:28 15° W 23:45:28 15° W 23:47:11 10° W visible
14 Aug 4.3 19:27:56 10° E 19:33:52 39° NNE 19:39:49 10° NW visible
14 Aug 3.3 21:13:34 37° ESE 21:16:22 76° NE 21:22:55 10° NW visible
14 Aug 4.2 23:00:54 34° WSW 23:00:54 34° WSW 23:05:40 10° WNW visible
15 Aug 3.8 20:29:00 18° E 20:33:49 51° NNE 20:40:07 10° NW visible
15 Aug 3.2 22:16:20 65° SSW 22:16:43 66° SW 22:23:15 10° NW visible
